Time,TemperatureF,DewpointF,PressureIn,WindDirection,WindDirectionDegrees,WindSpeedMPH,WindSpeedGustMPH,Humidity,HourlyPrecipIn,Conditions,Clouds,dailyrainin,SolarRadiationWatts/m^2,SoftwareType,DateUTC
2013-07-26 00:32:00,63.0,58.0,29.98,ESE,118,0.0,0.0,85,0.00,,,0.00,0.000000,,2013-07-26 04:32:00,
2013-07-26 01:02:00,62.0,59.0,29.98,ESE,122,0.0,0.0,89,0.00,,,0.00,0.000000,,2013-07-26 05:02:00,
2013-07-26 01:32:00,62.0,58.0,29.98,SSW,209,0.0,7.0,88,0.02,,,0.02,0.000000,,2013-07-26 05:32:00,
2013-07-26 01:43:00,62.0,58.0,29.99,SW,228,9.0,14.0,86,0.07,,,0.07,0.000000,,2013-07-26 05:43:00,
2013-07-26 01:52:00,62.0,58.0,29.99,South,175,5.0,20.0,86,0.11,,,0.11,0.000000,,2013-07-26 05:52:00,
2013-07-26 02:02:00,60.0,56.0,29.99,SW,216,5.0,12.0,88,0.22,,,0.22,0.000000,,2013-07-26 06:02:00,
2013-07-26 02:12:00,60.0,57.0,29.99,SSW,206,0.0,11.0,89,0.28,,,0.29,0.000000,,2013-07-26 06:12:00,
2013-07-26 02:33:00,60.0,56.0,30.01,SSE,165,9.0,15.0,86,0.51,,,0.53,0.000000,,2013-07-26 06:33:00,
2013-07-26 02:43:00,59.0,55.0,29.99,West,271,0.0,15.0,88,0.49,,,0.56,0.000000,,2013-07-26 06:43:00,
2013-07-26 02:52:00,59.0,56.0,29.99,SSE,165,0.0,0.0,91,0.42,,,0.57,0.000000,,2013-07-26 06:52:00,
2013-07-26 03:02:00,58.0,56.0,29.99,SSE,163,0.0,0.0,93,0.35,,,0.57,0.000000,,2013-07-26 07:02:00,
2013-07-26 03:32:00,58.0,57.0,29.97,SE,129,1.0,5.0,95,0.04,,,0.57,0.000000,,2013-07-26 07:32:00,
2013-07-26 03:43:00,58.0,57.0,29.96,SE,138,4.0,8.0,95,0.01,,,0.57,0.000000,,2013-07-26 07:43:00,
2013-07-26 03:53:00,58.0,57.0,29.96,SE,140,2.0,11.0,95,0.00,,,0.57,0.000000,,2013-07-26 07:53:00,
2013-07-26 04:02:00,58.0,56.0,29.96,SSE,151,1.0,6.0,94,0.00,,,0.57,0.000000,,2013-07-26 08:02:00,
2013-07-26 04:12:00,58.0,56.0,29.96,SSE,149,5.0,10.0,93,0.00,,,0.57,0.000000,,2013-07-26 08:12:00,
2013-07-26 04:22:00,58.0,56.0,29.95,SSE,156,1.0,11.0,93,0.00,,,0.57,0.000000,,2013-07-26 08:22:00,
2013-07-26 04:32:00,58.0,56.0,29.95,SSE,165,0.0,10.0,93,0.00,,,0.57,0.000000,,2013-07-26 08:32:00,
2013-07-26 04:44:00,58.0,56.0,29.95,SSE,155,0.0,1.0,92,0.00,,,0.57,0.000000,,2013-07-26 08:44:00,
2013-07-26 04:52:00,58.0,56.0,29.95,SE,144,6.0,12.0,92,0.00,,,0.57,0.000000,,2013-07-26 08:52:00,
2013-07-26 05:02:00,58.0,56.0,29.95,SE,136,4.0,10.0,92,0.00,,,0.57,0.000000,,2013-07-26 09:02:00,
2013-07-26 05:12:00,58.0,56.0,29.95,SSE,163,4.0,10.0,92,0.00,,,0.57,0.000000,,2013-07-26 09:12:00,
2013-07-26 05:32:00,57.0,55.0,29.94,SSE,150,0.0,11.0,92,0.00,,,0.57,0.000000,,2013-07-26 09:32:00,
2013-07-26 05:52:00,57.0,55.0,29.94,SSE,156,2.0,11.0,92,0.00,,,0.57,0.000000,,2013-07-26 09:52:00,
2013-07-26 06:02:00,58.0,56.0,29.94,SSE,155,4.0,12.0,92,0.00,,,0.57,0.000000,,2013-07-26 10:02:00,
2013-07-26 06:22:00,58.0,56.0,29.94,SSE,155,4.0,10.0,92,0.00,,,0.57,0.000000,,2013-07-26 10:22:00,
2013-07-26 06:42:00,57.0,55.0,29.94,SSE,153,0.0,6.0,92,0.00,,,0.57,9.000000,,2013-07-26 10:42:00,
2013-07-26 06:52:00,57.0,55.0,29.94,SE,135,4.0,7.0,92,0.00,,,0.57,12.000000,,2013-07-26 10:52:00,
2013-07-26 07:43:00,59.0,55.0,29.94,SSE,167,6.0,11.0,87,0.00,,,0.57,53.000000,,2013-07-26 11:43:00,
2013-07-26 07:52:00,59.0,55.0,29.94,SSE,163,6.0,11.0,87,0.00,,,0.57,125.000000,,2013-07-26 11:52:00,
2013-07-26 08:33:00,62.0,57.0,29.93,South,179,1.0,14.0,83,0.00,,,0.57,287.000000,,2013-07-26 12:33:00,
2013-07-26 09:43:00,69.0,61.0,29.93,SSW,195,4.0,15.0,75,0.00,,,0.57,529.000000,,2013-07-26 13:43:00,
2013-07-26 10:02:00,70.0,61.0,29.93,SSE,160,8.0,16.0,73,0.00,,,0.57,390.000000,,2013-07-26 14:02:00,
2013-07-26 10:43:00,67.0,61.0,29.92,SSE,159,1.0,14.0,82,0.00,,,0.57,139.000000,,2013-07-26 14:43:00,
2013-07-26 10:53:00,67.0,61.0,29.92,South,179,2.0,14.0,82,0.00,,,0.57,160.000000,,2013-07-26 14:53:00,
2013-07-26 11:53:00,71.0,63.0,29.92,SSE,164,9.0,15.0,77,0.00,,,0.57,345.000000,,2013-07-26 15:53:00,
2013-07-26 12:43:00,76.0,65.0,29.91,South,189,10.0,16.0,68,0.00,,,0.57,1046.000000,,2013-07-26 16:43:00,
2013-07-26 13:33:00,79.0,65.0,29.89,SSE,148,6.0,17.0,63,0.00,,,0.57,1185.000000,,2013-07-26 17:33:00,
2013-07-26 13:43:00,76.0,64.0,29.88,SE,144,0.0,8.0,66,0.00,,,0.57,292.000000,,2013-07-26 17:43:00,
2013-07-26 13:53:00,76.0,65.0,29.88,SSE,151,0.0,6.0,68,0.00,,,0.57,396.000000,,2013-07-26 17:53:00,
2013-07-26 14:33:00,78.0,66.0,29.86,SSW,204,14.0,19.0,66,0.00,,,0.57,524.000000,,2013-07-26 18:33:00,
2013-07-26 14:52:00,77.0,65.0,29.86,South,176,11.0,20.0,66,0.00,,,0.57,104.000000,,2013-07-26 18:52:00,
2013-07-26 15:32:00,75.0,68.0,29.84,WNW,299,3.0,10.0,78,0.03,,,0.60,1062.000000,,2013-07-26 19:32:00,
2013-07-26 15:43:00,72.0,65.0,29.84,NW,316,0.0,0.0,80,0.03,,,0.60,369.000000,,2013-07-26 19:43:00,
2013-07-26 16:32:00,73.0,63.0,29.85,South,182,14.0,27.0,72,0.00,,,0.60,148.000000,,2013-07-26 20:32:00,
2013-07-26 16:43:00,71.0,63.0,29.86,SSW,192,9.0,22.0,75,0.00,,,0.60,72.000000,,2013-07-26 20:43:00,
2013-07-26 16:53:00,71.0,63.0,29.86,South,183,9.0,22.0,76,0.00,,,0.60,56.000000,,2013-07-26 20:53:00,
2013-07-26 18:02:00,68.0,63.0,29.85,SSW,204,5.0,12.0,84,0.02,,,0.62,12.000000,,2013-07-26 22:02:00,
2013-07-26 18:33:00,65.0,63.0,29.87,SSW,202,17.0,24.0,92,0.31,,,0.91,16.000000,,2013-07-26 22:33:00,
2013-07-26 19:32:00,61.0,59.0,29.90,West,281,8.0,16.0,94,0.21,,,1.12,12.000000,,2013-07-26 23:32:00,
2013-07-26 19:43:00,61.0,59.0,29.88,WSW,242,0.0,13.0,94,0.22,,,1.18,9.000000,,2013-07-26 23:43:00,
2013-07-26 19:53:00,61.0,59.0,29.88,WSW,242,0.0,13.0,94,0.22,,,1.18,9.000000,,2013-07-26 23:53:00,
2013-07-26 20:02:00,61.0,60.0,29.88,SW,217,0.0,1.0,95,0.22,,,1.27,12.000000,,2013-07-27 00:02:00,
2013-07-26 20:12:00,61.0,60.0,29.88,SW,217,0.0,0.0,95,0.23,,,1.29,5.000000,,2013-07-27 00:12:00,
2013-07-26 20:22:00,61.0,60.0,29.88,South,189,0.0,0.0,95,0.23,,,1.30,0.000000,,2013-07-27 00:22:00,
2013-07-26 20:32:00,61.0,60.0,29.88,South,169,0.0,0.0,96,0.22,,,1.32,0.000000,,2013-07-27 00:32:00,
2013-07-26 20:43:00,61.0,60.0,29.88,South,171,0.0,0.0,96,0.18,,,1.33,0.000000,,2013-07-27 00:43:00,
2013-07-26 20:53:00,61.0,60.0,29.88,SSE,148,3.0,6.0,96,0.15,,,1.33,0.000000,,2013-07-27 00:53:00,
2013-07-26 21:02:00,60.0,59.0,29.87,SSE,148,0.0,0.0,96,0.10,,,1.35,0.000000,,2013-07-27 01:02:00,
2013-07-26 21:12:00,60.0,59.0,29.86,SSE,148,0.0,0.0,96,0.07,,,1.35,0.000000,,2013-07-27 01:12:00,
2013-07-26 21:22:00,60.0,59.0,29.85,ESE,115,0.0,0.0,96,0.04,,,1.35,0.000000,,2013-07-27 01:22:00,
2013-07-26 21:32:00,60.0,59.0,29.85,SE,144,0.0,0.0,96,0.04,,,1.36,0.000000,,2013-07-27 01:32:00,
2013-07-26 21:43:00,60.0,59.0,29.85,South,171,0.0,0.0,96,0.04,,,1.36,0.000000,,2013-07-27 01:43:00,
2013-07-26 21:53:00,60.0,59.0,29.86,South,172,0.0,0.0,96,0.04,,,1.36,0.000000,,2013-07-27 01:53:00,
2013-07-26 22:02:00,61.0,60.0,29.86,SE,141,0.0,0.0,97,0.01,,,1.36,0.000000,,2013-07-27 02:02:00,
2013-07-26 22:12:00,60.0,59.0,29.85,SE,140,0.0,0.0,96,0.02,,,1.37,0.000000,,2013-07-27 02:12:00,
2013-07-26 22:22:00,60.0,59.0,29.85,SE,145,0.0,0.0,96,0.02,,,1.37,0.000000,,2013-07-27 02:22:00,
2013-07-26 22:32:00,60.0,59.0,29.85,SE,145,0.0,6.0,97,0.01,,,1.37,0.000000,,2013-07-27 02:32:00,
2013-07-26 22:43:00,60.0,59.0,29.85,SE,145,0.0,9.0,97,0.01,,,1.37,0.000000,,2013-07-27 02:43:00,
2013-07-26 22:53:00,60.0,59.0,29.85,SSE,148,0.0,9.0,97,0.01,,,1.37,0.000000,,2013-07-27 02:53:00,
2013-07-26 23:44:00,60.0,59.0,29.83,South,188,0.0,0.0,96,0.00,,,1.37,0.000000,,2013-07-27 03:44:00,